Regional Weather Roundup
Issued by NWS

Home | Current Version | Previous Version | Graphics & Text | Print | Product List | Glossary On
Versions: 1 2 3 4 5 6 7 8 9 10 11 12 13 14 15 16 17 18 19 20 21 22 23 24 25 26 27 28 29 30 31 32 33 34 35 36 37 38 39 40 41 42 43 44 45 46 47 48 49 50
000
ASUS45 KCYS 041610
RWRWY

WYOMING REGIONAL WEATHER ROUNDUP
NATIONAL WEATHER SERVICE CHEYENNE WY
1000 AM MDT SAT JUL 04 2015

NOTE:  "FAIR" INDICATES FEW OR NO CLOUDS BELOW 12,000 FEET
WITH NO SIGNIFICANT WEATHER AND/OR OBSTRUCTIONS TO VISIBILITY.

WYZ001-041700-
YELLOWSTONE NATIONAL PARK

CITY           SKY/WX    TMP DP  RH WIND       PRES   REMARKS
LK YELLOWSTONE   N/A     62  50  64 E6        30.24R
W YELLOWSTONE  NOT AVBL

$$
WYZ002>013-054>058-071-098>099-041700-
NORTHERN WYOMING

CITY           SKY/WX    TMP DP  RH WIND       PRES   REMARKS
JACKSON        FAIR      70  46  43 CALM      30.13S
CODY           FAIR      81  50  34 CALM      29.98S
GREYBULL       FAIR      81  52  36 VRB5      29.90F
WORLAND        FAIR      77  57  50 W5        29.92F
SHERIDAN       FAIR      83  58  42 SE3       29.89S
BUFFALO        FAIR      84  52  33 NE8       29.97S
GILLETTE       FAIR      82  56  40 CALM      29.92S
HULETT         FAIR      79  59  50 SW8       29.93S
NEWCASTLE      FAIR      75  55  50 MISG      29.94S

$$
WYZ014>020-022>026-101>103-041700-
CENTRAL WYOMING

CITY           SKY/WX    TMP DP  RH WIND       PRES   REMARKS
BIG PINEY      FAIR      75  45  34 SW3       30.16F
PINEDALE       FAIR      77  39  25 E3        30.17F
DUBOIS         FAIR      73  43  33 CALM      30.14F
LANDER         FAIR      80  49  33 E3        30.03S
RIVERTON       FAIR      77  53  43 CALM      30.03S
CASPER         FAIR      81  49  32 W9        30.00F
DOUGLAS        FAIR      77  57  50 N5        29.98F

$$
WYZ021-027>030-104>119-041700-
SOUTHERN WYOMING

CITY           SKY/WX    TMP DP  RH WIND       PRES   REMARKS
EVANSTON       FAIR      72  48  42 S7        30.20R
KEMMERER       FAIR      79  37  22 W9        30.20S
FORT BRIDGER   CLOUDY    79  41  25 SW5       30.22S
ROCK SPRINGS   FAIR      78  42  27 W8        30.15S
DIXON          FAIR      76  45  32 SW10G17   30.19S
RAWLINS        FAIR      76  47  35 SE5       30.14F
SARATOGA       FAIR      77  41  27 SE5       30.19R
LARAMIE        LGT RAIN  72  42  34 N10G30    30.16S
CHEYENNE       FAIR      80  50  34 VRB3      30.06S
TORRINGTON     FAIR      78  61  55 S7        29.92F
PINE BLUFFS    FAIR      79  59  50 S7        30.01S

$$



USA.gov is the U.S. government's official web portal to all federal, state and local government web resources and services.